Sturgis, MI

12:18 PM EST on November 23, 2017 (GMT -0500)
Kirsch Municipal

Weather History for KIRS - September, 2012

Change the Weather History Date:

Tuesday, September 11, 2012

  Actual Average (KHAI) Record (KHAI)
Temperature  
Mean Temperature 64 °F -  
Max Temperature 78 °F 76 °F 95 °F (1983)
Min Temperature 51 °F 54 °F 38 °F (1993)
Growing Degree Days 14 (Base 50)    
Moisture  
Dew Point 51 °F    
Average Humidity 64    
Maximum Humidity 82    
Minimum Humidity 42    
Precipitation  
Precipitation 0.00 in - - ()
Sea Level Pressure  
Sea Level Pressure 30.17 in    
Wind  
Wind Speed 4 mph (SSW)    
Max Wind Speed 15 mph    
Max Gust Speed 22 mph    
Visibility 10 miles    
Events      
Averages and records for this station are not official NWS values.
T = Trace of Precipitation, MM = Missing Value Source: NWS Daily Summary

Daily Weather History Graph

Daily Weather History Graph

Search for Another Location

Airport or City:

Trip Planner

Search our weather history database for the weather conditions in past years. The results will help you decide how hot, cold, wet, or windy it might be!

Date:

Astronomy

Sep. 11, 2012 Rise Set
Actual Time 7:18 AM EDT 7:57 PM EDT
Civil Twilight 6:50 AM EDT 8:25 PM EDT
Nautical Twilight 6:16 AM EDT 8:58 PM EDT
Astronomical Twilight 5:42 AM EDT 9:32 PM EDT
Moon 2:31 AM EDT (9/11) 5:10 PM EDT (9/11)
Length of Visible Light 13h 35m
Length of Day
12h 38m
Waning Crescent, 21% of the Moon is Illuminated
Sep 11
Waning Crescent
Sep 15
New
Sep 22
First Quarter
Sep 29
Full
Oct 8
Last Quarter

Hourly Weather History & Observations

Time (EDT) Temp. Dew Point Humidity Pressure Visibility Wind Dir Wind Speed Gust Speed Precip Events Conditions
12:15 AM 57.2 °F 48.2 °F 72% 30.16 in 10.0 mi Calm Calm - N/A   Clear
12:35 AM 55.4 °F 48.2 °F 77% 30.16 in 10.0 mi South 3.5 mph - N/A   Clear
12:55 AM 55.4 °F 48.2 °F 77% 30.16 in 10.0 mi Calm Calm - N/A   Clear
1:14 AM 55.4 °F 48.2 °F 77% 30.16 in 10.0 mi Calm Calm - N/A   Clear
1:35 AM 55.4 °F 48.2 °F 77% 30.16 in 10.0 mi Calm Calm - N/A   Clear
1:55 AM 53.6 °F 48.2 °F 82% 30.17 in 10.0 mi Calm Calm - N/A   Clear
2:14 AM 55.4 °F 46.4 °F 72% 30.17 in 10.0 mi Calm Calm - N/A   Clear
2:35 AM 55.4 °F 46.4 °F 72% 30.17 in 10.0 mi Calm Calm - N/A   Clear
2:55 AM 53.6 °F 46.4 °F 77% 30.17 in 10.0 mi Calm Calm - N/A   Clear
3:15 AM 55.4 °F 46.4 °F 72% 30.17 in 10.0 mi Calm Calm - N/A   Clear
3:35 AM 55.4 °F 46.4 °F 72% 30.17 in 10.0 mi Calm Calm - N/A   Clear
3:55 AM 53.6 °F 46.4 °F 77% 30.17 in 10.0 mi Calm Calm - N/A   Clear
4:15 AM 53.6 °F 46.4 °F 77% 30.17 in 10.0 mi Calm Calm - N/A   Clear
4:35 AM 53.6 °F 46.4 °F 77% 30.18 in 10.0 mi Calm Calm - N/A   Clear
4:55 AM 51.8 °F 46.4 °F 82% 30.18 in 10.0 mi Calm Calm - N/A   Clear
5:15 AM 53.6 °F 46.4 °F 77% 30.18 in 10.0 mi Calm Calm - N/A   Clear
5:34 AM 53.6 °F 46.4 °F 77% 30.18 in 10.0 mi Calm Calm - N/A   Clear
5:55 AM 53.6 °F 46.4 °F 77% 30.18 in 10.0 mi Calm Calm - N/A   Clear
6:15 AM 53.6 °F 46.4 °F 77% 30.19 in 10.0 mi Calm Calm - N/A   Clear
6:35 AM 53.6 °F 46.4 °F 77% 30.19 in 10.0 mi Calm Calm - N/A   Clear
6:55 AM 51.8 °F 46.4 °F 82% 30.19 in 10.0 mi Calm Calm - N/A   Clear
7:14 AM 53.6 °F 46.4 °F 77% 30.20 in 10.0 mi Calm Calm - N/A   Clear
7:17 AM 53.6 °F 46.4 °F 77% 30.20 in 10.0 mi Calm Calm - N/A   Clear
7:55 AM 53.6 °F 48.2 °F 82% 30.21 in 10.0 mi South 3.5 mph - N/A   Clear
8:15 AM 55.4 °F 50.0 °F 82% 30.21 in 10.0 mi South 2.3 mph - N/A   Clear
8:16 AM 55.4 °F 50.0 °F 82% 30.21 in 10.0 mi Calm Calm - N/A   Clear
8:35 AM 57.2 °F 51.8 °F 82% 30.22 in 10.0 mi South 4.6 mph - N/A   Clear
8:55 AM 57.2 °F 51.8 °F 82% 30.22 in 10.0 mi SSW 5.8 mph - N/A   Clear
9:14 AM 60.8 °F 53.6 °F 77% 30.22 in 10.0 mi WSW 5.8 mph - N/A   Clear
9:35 AM 62.6 °F 53.6 °F 72% 30.21 in 10.0 mi WSW 6.9 mph - N/A   Clear
9:55 AM 64.4 °F 53.6 °F 68% 30.22 in 10.0 mi SW 9.2 mph - N/A   Clear
10:15 AM 66.2 °F 55.4 °F 68% 30.21 in 10.0 mi SW 11.5 mph - N/A   Clear
10:30 AM 66.2 °F 55.4 °F 68% 30.22 in 10.0 mi SW 10.4 mph - N/A   Clear
10:55 AM 68.0 °F 55.4 °F 64% 30.22 in 10.0 mi SW 15.0 mph - N/A   Clear
11:14 AM 69.8 °F 55.4 °F 60% 30.22 in 10.0 mi SSW 11.5 mph 17.3 mph N/A   Clear
11:35 AM 71.6 °F 55.4 °F 57% 30.21 in 10.0 mi SW 12.7 mph 18.4 mph N/A   Clear
11:54 AM 71.6 °F 55.4 °F 57% 30.21 in 10.0 mi SSW 10.4 mph - N/A   Clear
12:15 PM 73.4 °F 55.4 °F 53% 30.21 in 10.0 mi SW 11.5 mph - N/A   Clear
12:35 PM 73.4 °F 53.6 °F 50% 30.21 in 10.0 mi WSW 15.0 mph 21.9 mph N/A   Clear
12:55 PM 73.4 °F 55.4 °F 53% 30.20 in 10.0 mi SW 9.2 mph 12.7 mph N/A   Clear
1:14 PM 73.4 °F 55.4 °F 53% 30.20 in 10.0 mi SW 13.8 mph - N/A   Clear
1:35 PM 75.2 °F 55.4 °F 50% 30.19 in 10.0 mi SSW 11.5 mph 21.9 mph N/A   Clear
1:55 PM 75.2 °F 55.4 °F 50% 30.19 in 10.0 mi SW 10.4 mph 18.4 mph N/A   Clear
2:14 PM 75.2 °F 55.4 °F 50% 30.19 in 10.0 mi SSW 11.5 mph - N/A   Clear
2:35 PM 75.2 °F 53.6 °F 47% 30.18 in 10.0 mi SW 13.8 mph - N/A   Clear
2:55 PM 75.2 °F 53.6 °F 47% 30.17 in 10.0 mi SW 12.7 mph - N/A   Clear
3:15 PM 75.2 °F 53.6 °F 47% 30.16 in 10.0 mi SSW 15.0 mph 21.9 mph N/A   Clear
3:35 PM 77.0 °F 53.6 °F 44% 30.16 in 10.0 mi SW 10.4 mph 20.7 mph N/A   Clear
3:55 PM 77.0 °F 53.6 °F 44% 30.15 in 10.0 mi SSW 11.5 mph - N/A   Clear
4:14 PM 77.0 °F 53.6 °F 44% 30.15 in 10.0 mi SW 13.8 mph 19.6 mph N/A   Clear
4:35 PM 78.8 °F 53.6 °F 42% 30.15 in 10.0 mi SSW 15.0 mph 20.7 mph N/A   Clear
4:55 PM 77.0 °F 53.6 °F 44% 30.15 in 10.0 mi SW 13.8 mph - N/A   Clear
5:15 PM 77.0 °F 53.6 °F 44% 30.14 in 10.0 mi SSW 12.7 mph 19.6 mph N/A   Clear
5:35 PM 77.0 °F 53.6 °F 44% 30.14 in 10.0 mi SSW 12.7 mph - N/A   Clear
5:55 PM 77.0 °F 53.6 °F 44% 30.13 in 10.0 mi South 11.5 mph 17.3 mph N/A   Clear
6:15 PM 77.0 °F 53.6 °F 44% 30.13 in 10.0 mi SSW 11.5 mph - N/A   Clear
6:34 PM 77.0 °F 53.6 °F 44% 30.13 in 10.0 mi SSW 9.2 mph - N/A   Clear
6:55 PM 75.2 °F 55.4 °F 50% 30.13 in 10.0 mi South 6.9 mph - N/A   Clear
7:15 PM 73.4 °F 53.6 °F 50% 30.13 in 10.0 mi SSW 6.9 mph - N/A   Clear
7:35 PM 73.4 °F 53.6 °F 50% 30.13 in 10.0 mi South 5.8 mph - N/A   Clear
7:55 PM 69.8 °F 53.6 °F 56% 30.13 in 10.0 mi South 6.9 mph - N/A   Clear
8:15 PM 69.8 °F 53.6 °F 56% 30.14 in 10.0 mi South 5.8 mph - N/A   Clear
8:35 PM 68.0 °F 53.6 °F 60% 30.14 in 10.0 mi South 5.8 mph - N/A   Clear
8:55 PM 68.0 °F 53.6 °F 60% 30.14 in 10.0 mi South 5.8 mph - N/A   Clear
9:14 PM 66.2 °F 53.6 °F 64% 30.15 in 10.0 mi South 6.9 mph - N/A   Clear
9:35 PM 66.2 °F 53.6 °F 64% 30.15 in 10.0 mi South 6.9 mph - N/A   Clear
9:55 PM 64.4 °F 53.6 °F 68% 30.16 in 10.0 mi South 4.6 mph - N/A   Clear
10:15 PM 64.4 °F 51.8 °F 64% 30.16 in 10.0 mi South 4.6 mph - N/A   Clear
10:35 PM 62.6 °F 51.8 °F 68% 30.16 in 10.0 mi South 5.8 mph - N/A   Clear
10:55 PM 62.6 °F 51.8 °F 68% 30.16 in 10.0 mi South 6.9 mph - N/A   Clear
11:15 PM 62.6 °F 51.8 °F 68% 30.17 in 10.0 mi South 6.9 mph - N/A   Clear
11:35 PM 62.6 °F 51.8 °F 68% 30.17 in 10.0 mi South 6.9 mph - N/A   Clear
11:54 PM 62.6 °F 51.8 °F 68% 30.17 in 10.0 mi South 5.8 mph - N/A   Clear